Find Starlink 32380

NORAD ID: 61069 Int'l Des: 2024-164 Owner: SPXS Country: US Constellation: starlink operational
LEOCIRCULAR

現在のビュー

3D地球を読み込み中...

About Starlink 32380

Starlink 32380 (NORAD 61069) is a starlink constellation satellite (v2 mini) launched Sep 13, 2024 by SPXS of US. It operates in LEO, CIRCULAR orbit with a mass of 730.00 kg.

次回通過

Passes for default location (London). Set your location on the main map for personalized predictions.

高度履歴

Loading altitude history...

軌道要素

1 61069U 24164V 26237.14628474 .00000421 00000-0 25325-4 0 9993
2 61069 53.1592 27.6167 0000762 92.1533 267.9556 15.31703315109285
Epoch: Aug 25, 2026 • Age: 28 hours

現在のステータス

高度 471.6 km
遠地点 / 近地点 N/A
速度 7.63 km/s
衛星直下点 0.75°N, 67.42°W
打ち上げ日 Sep 13, 2024
運用期間 1.9 years
タイプ internet

技術仕様

分類 Payload
質量 730.00 kg
乾燥質量 700.00 kg
総質量 730.00 kg
長さ 0.30 m
直径 4.10 m
スパン 29.00 m
形状 Box + pan
製造者 SPXS
バスタイプ Starlink V2M
フェーズステータス In Orbit
所有者/国 SPXS/US

Most Searched